Year,Month,Day,Hour,Minute,Value (Times are PST for temperature in C)
2011,08,19,00,00,12.00
2011,08,19,00,01,12.00
2011,08,19,00,02,12.00
2011,08,19,00,03,12.00
2011,08,19,00,04,12.00
2011,08,19,00,05,12.00
2011,08,19,00,06,11.90
2011,08,19,00,07,11.90
2011,08,19,00,08,11.90
2011,08,19,00,09,11.90
2011,08,19,00,10,11.90
2011,08,19,00,11,11.90
2011,08,19,00,12,11.90
2011,08,19,00,13,11.90
2011,08,19,00,14,11.90
2011,08,19,00,15,11.90
2011,08,19,00,16,11.90
2011,08,19,00,17,11.90
2011,08,19,00,18,11.90
2011,08,19,00,19,11.90
2011,08,19,00,20,11.90
2011,08,19,00,21,11.90
2011,08,19,00,22,11.90
2011,08,19,00,23,11.90
2011,08,19,00,24,11.90
2011,08,19,00,25,11.90
2011,08,19,00,26,11.90
2011,08,19,00,27,11.90
2011,08,19,00,28,11.90
2011,08,19,00,29,11.90
2011,08,19,00,30,11.90
2011,08,19,00,31,11.90
2011,08,19,00,32,11.90
2011,08,19,00,33,11.90
2011,08,19,00,34,11.90
2011,08,19,00,35,11.90
2011,08,19,00,36,11.90
2011,08,19,00,37,11.90
2011,08,19,00,38,11.90
2011,08,19,00,39,11.90
2011,08,19,00,40,11.90
2011,08,19,00,41,11.90
2011,08,19,00,42,11.90
2011,08,19,00,43,11.90
2011,08,19,00,44,11.90
2011,08,19,00,45,11.90
2011,08,19,00,46,11.90
2011,08,19,00,47,11.90
2011,08,19,00,48,11.90
2011,08,19,00,49,11.90
2011,08,19,00,50,11.90
2011,08,19,00,51,11.90
2011,08,19,00,52,11.90
2011,08,19,00,53,11.90
2011,08,19,00,54,11.90
2011,08,19,00,55,11.90
2011,08,19,00,56,11.90
2011,08,19,00,57,11.90
2011,08,19,00,58,11.80
2011,08,19,00,59,11.80
2011,08,19,01,00,11.90
2011,08,19,01,01,11.90
2011,08,19,01,02,11.90
2011,08,19,01,03,11.90
2011,08,19,01,04,11.90
2011,08,19,01,05,11.90
2011,08,19,01,06,11.90
2011,08,19,01,07,11.90
2011,08,19,01,08,11.90
2011,08,19,01,09,11.90
2011,08,19,01,10,11.90
2011,08,19,01,11,11.90
2011,08,19,01,12,11.90
2011,08,19,01,13,11.90
2011,08,19,01,14,11.90
2011,08,19,01,15,11.90
2011,08,19,01,16,11.80
2011,08,19,01,17,11.80
2011,08,19,01,18,11.80
2011,08,19,01,19,11.80
2011,08,19,01,20,11.80
2011,08,19,01,21,11.80
2011,08,19,01,22,11.80
2011,08,19,01,23,11.80
2011,08,19,01,24,11.80
2011,08,19,01,25,11.80
2011,08,19,01,26,11.80
2011,08,19,01,27,11.80
2011,08,19,01,28,11.80
2011,08,19,01,29,11.80
2011,08,19,01,30,11.80
2011,08,19,01,31,11.80
2011,08,19,01,32,11.80
2011,08,19,01,33,11.80
2011,08,19,01,34,11.80
2011,08,19,01,35,11.80
2011,08,19,01,36,11.80
2011,08,19,01,37,11.80
2011,08,19,01,38,11.80
2011,08,19,01,39,11.80
2011,08,19,01,40,11.80
2011,08,19,01,41,11.80
2011,08,19,01,42,11.80
2011,08,19,01,43,11.80
2011,08,19,01,44,11.80
2011,08,19,01,45,11.80
2011,08,19,01,46,11.80
2011,08,19,01,47,11.80
2011,08,19,01,48,11.80
2011,08,19,01,49,11.80
2011,08,19,01,50,11.80
2011,08,19,01,51,11.80
2011,08,19,01,52,11.80
2011,08,19,01,53,11.80
2011,08,19,01,54,11.80
2011,08,19,01,55,11.80
2011,08,19,01,56,11.80
2011,08,19,01,57,11.80
2011,08,19,01,58,11.80
2011,08,19,01,59,11.70
2011,08,19,02,00,11.70
2011,08,19,02,01,11.70
2011,08,19,02,02,11.70
2011,08,19,02,03,11.70
2011,08,19,02,04,11.70
2011,08,19,02,05,11.70
2011,08,19,02,06,11.70
2011,08,19,02,07,11.70
2011,08,19,02,08,11.70
2011,08,19,02,09,11.70
2011,08,19,02,10,11.70
2011,08,19,02,11,11.70
2011,08,19,02,12,11.70
2011,08,19,02,13,11.60
2011,08,19,02,14,11.60
2011,08,19,02,15,11.60
2011,08,19,02,16,11.60
2011,08,19,02,17,11.60
2011,08,19,02,18,11.60
2011,08,19,02,19,11.60
2011,08,19,02,20,11.60
2011,08,19,02,21,11.60
2011,08,19,02,22,11.60
2011,08,19,02,23,11.60
2011,08,19,02,24,11.60
2011,08,19,02,25,11.60
2011,08,19,02,26,11.60
2011,08,19,02,27,11.60
2011,08,19,02,28,11.60
2011,08,19,02,29,11.60
2011,08,19,02,30,11.60
2011,08,19,02,31,11.60
2011,08,19,02,32,11.60
2011,08,19,02,33,11.60
2011,08,19,02,34,11.50
2011,08,19,02,35,11.40
2011,08,19,02,36,11.40
2011,08,19,02,37,11.40
2011,08,19,02,38,11.40
2011,08,19,02,39,11.40
2011,08,19,02,40,11.40
2011,08,19,02,41,11.40
2011,08,19,02,42,11.40
2011,08,19,02,43,11.40
2011,08,19,02,44,11.40
2011,08,19,02,45,11.40
2011,08,19,02,46,11.40
2011,08,19,02,47,11.40
2011,08,19,02,48,11.40
2011,08,19,02,49,11.40
2011,08,19,02,50,11.40
2011,08,19,02,51,11.40
2011,08,19,02,52,11.40
2011,08,19,02,53,11.40
2011,08,19,02,54,11.30
2011,08,19,02,55,11.30
2011,08,19,02,56,11.30
2011,08,19,02,57,11.30
2011,08,19,02,58,11.30
2011,08,19,02,59,11.30
2011,08,19,03,00,11.30
2011,08,19,03,01,11.30
2011,08,19,03,02,11.20
2011,08,19,03,03,11.20
2011,08,19,03,04,11.20
2011,08,19,03,05,11.20
2011,08,19,03,06,11.20
2011,08,19,03,07,11.20
2011,08,19,03,08,11.20
2011,08,19,03,09,11.20
2011,08,19,03,10,11.20
2011,08,19,03,11,11.20
2011,08,19,03,12,11.20
2011,08,19,03,13,11.10
2011,08,19,03,14,11.10
2011,08,19,03,15,11.10
2011,08,19,03,16,11.10
2011,08,19,03,17,11.10
2011,08,19,03,18,11.10
2011,08,19,03,19,11.10
2011,08,19,03,20,11.10
2011,08,19,03,21,11.10
2011,08,19,03,22,11.10
2011,08,19,03,23,11.10
2011,08,19,03,24,11.10
2011,08,19,03,25,11.00
2011,08,19,03,26,10.90
2011,08,19,03,27,10.90
2011,08,19,03,28,10.90
2011,08,19,03,29,10.90
2011,08,19,03,30,10.90
2011,08,19,03,31,10.90
2011,08,19,03,32,11.00
2011,08,19,03,33,11.10
2011,08,19,03,34,11.10
2011,08,19,03,35,11.10
2011,08,19,03,36,11.10
2011,08,19,03,37,11.00
2011,08,19,03,38,10.90
2011,08,19,03,39,10.90
2011,08,19,03,40,10.90
2011,08,19,03,41,10.90
2011,08,19,03,42,10.90
2011,08,19,03,43,10.90
2011,08,19,03,44,10.90
2011,08,19,03,45,10.90
2011,08,19,03,46,10.90
2011,08,19,03,47,10.90
2011,08,19,03,48,10.90
2011,08,19,03,49,10.90
2011,08,19,03,50,10.90
2011,08,19,03,51,10.90
2011,08,19,03,52,10.90
2011,08,19,03,53,10.90
2011,08,19,03,54,10.90
2011,08,19,03,55,10.90
2011,08,19,03,56,10.90
2011,08,19,03,57,10.90
2011,08,19,03,58,10.90
2011,08,19,03,59,10.90
2011,08,19,04,00,10.90
2011,08,19,04,01,10.90
2011,08,19,04,02,10.90
2011,08,19,04,03,10.90
2011,08,19,04,04,10.90
2011,08,19,04,05,10.90
2011,08,19,04,06,10.90
2011,08,19,04,07,10.90
2011,08,19,04,08,10.90
2011,08,19,04,09,10.90
2011,08,19,04,10,10.90
2011,08,19,04,11,10.90
2011,08,19,04,12,10.90
2011,08,19,04,13,10.90
2011,08,19,04,14,10.90
2011,08,19,04,15,10.90
2011,08,19,04,16,10.90
2011,08,19,04,17,10.90
2011,08,19,04,18,10.90
2011,08,19,04,19,10.90
2011,08,19,04,20,10.90
2011,08,19,04,21,10.90
2011,08,19,04,22,10.90
2011,08,19,04,23,10.90
2011,08,19,04,24,10.90
2011,08,19,04,25,10.90
2011,08,19,04,26,10.90
2011,08,19,04,27,10.90
2011,08,19,04,28,10.90
2011,08,19,04,29,10.90
2011,08,19,04,30,10.90
2011,08,19,04,31,10.90
2011,08,19,04,32,10.80
2011,08,19,04,33,10.80
2011,08,19,04,34,10.80
2011,08,19,04,35,10.80
2011,08,19,04,36,10.70
2011,08,19,04,37,10.70
2011,08,19,04,38,10.70
2011,08,19,04,39,10.70
2011,08,19,04,40,10.70
2011,08,19,04,41,10.70
2011,08,19,04,42,10.70
2011,08,19,04,43,10.70
2011,08,19,04,44,10.70
2011,08,19,04,45,10.70
2011,08,19,04,46,10.70
2011,08,19,04,47,10.70
2011,08,19,04,48,10.60
2011,08,19,04,49,10.60
2011,08,19,04,50,10.60
2011,08,19,04,51,10.60
2011,08,19,04,52,10.60
2011,08,19,04,53,10.60
2011,08,19,04,54,10.60
2011,08,19,04,55,10.60
2011,08,19,04,56,10.60
2011,08,19,04,57,10.60
2011,08,19,04,58,10.60
2011,08,19,04,59,10.60
2011,08,19,05,00,10.60
2011,08,19,05,01,10.60
2011,08,19,05,02,10.60
2011,08,19,05,03,10.60
2011,08,19,05,04,10.60
2011,08,19,05,05,10.60
2011,08,19,05,06,10.60
2011,08,19,05,07,10.60
2011,08,19,05,08,10.60
2011,08,19,05,09,10.60
2011,08,19,05,10,10.60
2011,08,19,05,11,10.60
2011,08,19,05,12,10.60
2011,08,19,05,13,10.60
2011,08,19,05,14,10.60
2011,08,19,05,15,10.60
2011,08,19,05,16,10.60
2011,08,19,05,17,10.60
2011,08,19,05,18,10.60
2011,08,19,05,19,10.60
2011,08,19,05,20,10.60
2011,08,19,05,21,10.60
2011,08,19,05,22,10.60
2011,08,19,05,23,10.60
2011,08,19,05,24,10.60
2011,08,19,05,25,10.60
2011,08,19,05,26,10.60
2011,08,19,05,27,10.60
2011,08,19,05,28,10.60
2011,08,19,05,29,10.60
2011,08,19,05,30,10.60
2011,08,19,05,31,10.60
2011,08,19,05,32,10.60
2011,08,19,05,33,10.60
2011,08,19,05,34,10.60
2011,08,19,05,35,10.60
2011,08,19,05,36,10.60
2011,08,19,05,37,10.60
2011,08,19,05,38,10.60
2011,08,19,05,39,10.50
2011,08,19,05,40,10.40
2011,08,19,05,41,10.40
2011,08,19,05,42,10.40
2011,08,19,05,43,10.40
2011,08,19,05,44,10.40
2011,08,19,05,45,10.40
2011,08,19,05,46,10.40
2011,08,19,05,47,10.40
2011,08,19,05,48,10.40
2011,08,19,05,49,10.40
2011,08,19,05,50,10.40
2011,08,19,05,51,10.40
2011,08,19,05,52,10.40
2011,08,19,05,53,10.40
2011,08,19,05,54,10.40
2011,08,19,05,55,10.40
2011,08,19,05,56,10.40
2011,08,19,05,57,10.40
2011,08,19,05,58,10.40
2011,08,19,05,59,10.40
2011,08,19,06,00,10.40
2011,08,19,06,01,10.40
2011,08,19,06,02,10.40
2011,08,19,06,03,10.40
2011,08,19,06,04,10.40
2011,08,19,06,05,10.40
2011,08,19,06,06,10.40
2011,08,19,06,07,10.40
2011,08,19,06,08,10.40
2011,08,19,06,09,10.40
2011,08,19,06,10,10.40
2011,08,19,06,11,10.40
2011,08,19,06,12,10.40
2011,08,19,06,13,10.40
2011,08,19,06,14,10.40
2011,08,19,06,15,10.40
2011,08,19,06,16,10.40
2011,08,19,06,17,10.40
2011,08,19,06,18,10.40
2011,08,19,06,19,10.40
2011,08,19,06,20,10.40
2011,08,19,06,21,10.40
2011,08,19,06,22,10.30
2011,08,19,06,23,10.30
2011,08,19,06,24,10.30
2011,08,19,06,25,10.30
2011,08,19,06,26,10.30
2011,08,19,06,27,10.20
2011,08,19,06,28,10.20
2011,08,19,06,29,10.20
2011,08,19,06,30,10.20
2011,08,19,06,31,10.10
2011,08,19,06,32,10.10
2011,08,19,06,33,10.10
2011,08,19,06,34,10.10
2011,08,19,06,35,10.10
2011,08,19,06,36,10.10
2011,08,19,06,37,10.10
2011,08,19,06,38,10.10
2011,08,19,06,39,10.10
2011,08,19,06,40,10.10
2011,08,19,06,41,10.10
2011,08,19,06,42,10.10
2011,08,19,06,43,10.10
2011,08,19,06,44,10.10
2011,08,19,06,45,10.10
2011,08,19,06,46,10.00
2011,08,19,06,47,9.90
2011,08,19,06,48,9.90
2011,08,19,06,49,9.90
2011,08,19,06,50,9.90
2011,08,19,06,51,9.90
2011,08,19,06,52,9.90
2011,08,19,06,53,9.90
2011,08,19,06,54,9.90
2011,08,19,06,55,9.90
2011,08,19,06,56,9.90
2011,08,19,06,57,9.90
2011,08,19,06,58,9.90
2011,08,19,06,59,9.90
2011,08,19,07,00,9.90
2011,08,19,07,01,9.80
2011,08,19,07,02,9.80
2011,08,19,07,03,9.80
2011,08,19,07,04,9.80
2011,08,19,07,05,9.80
2011,08,19,07,06,9.80
2011,08,19,07,07,9.80
2011,08,19,07,08,9.80
2011,08,19,07,09,9.80
2011,08,19,07,10,9.80
2011,08,19,07,11,9.80
2011,08,19,07,12,9.80
2011,08,19,07,13,9.80
2011,08,19,07,14,9.80
2011,08,19,07,15,9.80
2011,08,19,07,16,9.80
2011,08,19,07,17,9.80
2011,08,19,07,18,9.80
2011,08,19,07,19,9.80
2011,08,19,07,20,9.80
2011,08,19,07,21,9.80
2011,08,19,07,22,9.80
2011,08,19,07,23,9.80
2011,08,19,07,24,9.80
2011,08,19,07,25,9.70
2011,08,19,07,26,9.80
2011,08,19,07,27,9.80
2011,08,19,07,28,9.80
2011,08,19,07,29,9.80
2011,08,19,07,30,9.80
2011,08,19,07,31,9.80
2011,08,19,07,32,9.80
2011,08,19,07,33,9.80
2011,08,19,07,34,9.80
2011,08,19,07,35,9.80
2011,08,19,07,36,9.80
2011,08,19,07,37,9.80
2011,08,19,07,38,9.80
2011,08,19,07,39,9.90
2011,08,19,07,40,9.90
2011,08,19,07,41,10.00
2011,08,19,07,42,10.10
2011,08,19,07,43,10.10
2011,08,19,07,44,10.10
2011,08,19,07,45,10.10
2011,08,19,07,46,10.20
2011,08,19,07,47,10.20
2011,08,19,07,48,10.30
2011,08,19,07,49,10.40
2011,08,19,07,50,10.40
2011,08,19,07,51,10.40
2011,08,19,07,52,10.40
2011,08,19,07,53,10.40
2011,08,19,07,54,10.40
2011,08,19,07,55,10.40
2011,08,19,07,56,10.40
2011,08,19,07,57,10.40
2011,08,19,07,58,10.40
2011,08,19,07,59,10.40
2011,08,19,08,00,10.40
2011,08,19,08,01,10.40
2011,08,19,08,02,10.40
2011,08,19,08,03,10.40
2011,08,19,08,04,10.40
2011,08,19,08,05,10.40
2011,08,19,08,06,10.40
2011,08,19,08,07,10.50
2011,08,19,08,08,10.60
2011,08,19,08,09,10.60
2011,08,19,08,10,10.60
2011,08,19,08,11,10.60
2011,08,19,08,12,10.70
2011,08,19,08,13,10.70
2011,08,19,08,14,10.80
2011,08,19,08,15,10.80
2011,08,19,08,16,10.80
2011,08,19,08,17,10.80
2011,08,19,08,18,10.90
2011,08,19,08,19,10.90
2011,08,19,08,20,10.90
2011,08,19,08,21,10.90
2011,08,19,08,22,10.90
2011,08,19,08,23,10.90
2011,08,19,08,24,10.90
2011,08,19,08,25,10.90
2011,08,19,08,26,10.90
2011,08,19,08,27,10.90
2011,08,19,08,28,10.90
2011,08,19,08,29,10.90
2011,08,19,08,30,10.90
2011,08,19,08,31,11.00
2011,08,19,08,32,11.10
2011,08,19,08,33,11.10
2011,08,19,08,34,11.10
2011,08,19,08,35,11.10
2011,08,19,08,36,11.10
2011,08,19,08,37,11.10
2011,08,19,08,38,11.10
2011,08,19,08,39,11.20
2011,08,19,08,40,11.20
2011,08,19,08,41,11.20
2011,08,19,08,42,11.20
2011,08,19,08,43,11.20
2011,08,19,08,44,11.30
2011,08,19,08,45,11.30
2011,08,19,08,46,11.30
2011,08,19,08,47,11.30
2011,08,19,08,48,11.30
2011,08,19,08,49,11.40
2011,08,19,08,50,11.40
2011,08,19,08,51,11.40
2011,08,19,08,52,11.40
2011,08,19,08,53,11.40
2011,08,19,08,54,11.40
2011,08,19,08,55,11.50
2011,08,19,08,56,11.40
2011,08,19,08,57,11.40
2011,08,19,08,58,11.30
2011,08,19,08,59,11.40
2011,08,19,09,00,11.40
2011,08,19,09,01,11.30
2011,08,19,09,02,11.30
2011,08,19,09,03,11.30
2011,08,19,09,04,11.40
2011,08,19,09,05,11.30
2011,08,19,09,06,11.30
2011,08,19,09,07,11.20
2011,08,19,09,08,11.20
2011,08,19,09,09,11.20
2011,08,19,09,10,11.30
2011,08,19,09,11,11.30
2011,08,19,09,12,11.30
2011,08,19,09,13,11.30
2011,08,19,09,14,11.40
2011,08,19,09,15,11.40
2011,08,19,09,16,11.40
2011,08,19,09,17,11.40
2011,08,19,09,18,11.40
2011,08,19,09,19,11.50
2011,08,19,09,20,11.50
2011,08,19,09,21,11.40
2011,08,19,09,22,11.40
2011,08,19,09,23,11.30
2011,08,19,09,24,11.30
2011,08,19,09,25,11.30
2011,08,19,09,26,11.30
2011,08,19,09,27,11.30
2011,08,19,09,28,11.40
2011,08,19,09,29,11.40
2011,08,19,09,30,11.40
2011,08,19,09,31,11.40
2011,08,19,09,32,11.50
2011,08,19,09,33,11.60
2011,08,19,09,34,11.60
2011,08,19,09,35,11.50
2011,08,19,09,36,11.40
2011,08,19,09,37,11.40
2011,08,19,09,38,11.30
2011,08,19,09,39,11.30
2011,08,19,09,40,11.30
2011,08,19,09,41,11.30
2011,08,19,09,42,11.30
2011,08,19,09,43,11.30
2011,08,19,09,44,11.30
2011,08,19,09,45,11.40
2011,08,19,09,46,11.40
2011,08,19,09,47,11.40
2011,08,19,09,48,11.40
2011,08,19,09,49,11.50
2011,08,19,09,50,11.60
2011,08,19,09,51,11.70
2011,08,19,09,52,11.80
2011,08,19,09,53,11.80
2011,08,19,09,54,11.80
2011,08,19,09,55,11.80
2011,08,19,09,56,11.80
2011,08,19,09,57,11.80
2011,08,19,09,58,11.80
2011,08,19,09,59,11.90
2011,08,19,10,00,11.90
2011,08,19,10,01,12.00
2011,08,19,10,02,12.10
2011,08,19,10,03,12.30
2011,08,19,10,04,12.40
2011,08,19,10,05,12.50
2011,08,19,10,06,12.50
2011,08,19,10,07,12.40
2011,08,19,10,08,12.50
2011,08,19,10,09,12.60
2011,08,19,10,10,12.70
2011,08,19,10,11,12.80
2011,08,19,10,12,12.80
2011,08,19,10,13,12.80
2011,08,19,10,14,12.90
2011,08,19,10,15,12.90
2011,08,19,10,16,12.80
2011,08,19,10,17,12.80
2011,08,19,10,18,12.80
2011,08,19,10,19,12.90
2011,08,19,10,20,12.90
2011,08,19,10,21,13.00
2011,08,19,10,22,13.00
2011,08,19,10,23,13.10
2011,08,19,10,24,13.10
2011,08,19,10,25,13.10
2011,08,19,10,26,13.00
2011,08,19,10,27,13.00
2011,08,19,10,28,13.00
2011,08,19,10,29,12.90
2011,08,19,10,30,12.80
2011,08,19,10,31,12.80
2011,08,19,10,32,12.90
2011,08,19,10,33,13.00
2011,08,19,10,34,13.00
2011,08,19,10,35,12.90
2011,08,19,10,36,12.70
2011,08,19,10,37,12.70
2011,08,19,10,38,12.60
2011,08,19,10,39,12.60
2011,08,19,10,40,12.60
2011,08,19,10,41,12.60
2011,08,19,10,42,12.60
2011,08,19,10,43,12.70
2011,08,19,10,44,12.70
2011,08,19,10,45,12.80
2011,08,19,10,46,13.00
2011,08,19,10,47,13.10
2011,08,19,10,48,13.10
2011,08,19,10,49,13.20
2011,08,19,10,50,13.20
2011,08,19,10,51,13.20
2011,08,19,10,52,13.20
2011,08,19,10,53,13.10
2011,08,19,10,54,13.10
2011,08,19,10,55,13.00
2011,08,19,10,56,12.90
2011,08,19,10,57,12.90
2011,08,19,10,58,12.90
2011,08,19,10,59,13.00
2011,08,19,11,00,13.10
2011,08,19,11,01,13.00
2011,08,19,11,02,12.90
2011,08,19,11,03,13.00
2011,08,19,11,04,13.00
2011,08,19,11,05,13.10
2011,08,19,11,06,13.00
2011,08,19,11,07,13.00
2011,08,19,11,08,13.10
2011,08,19,11,09,13.20
2011,08,19,11,10,13.10
2011,08,19,11,11,13.10
2011,08,19,11,12,13.00
2011,08,19,11,13,12.90
2011,08,19,11,14,12.90
2011,08,19,11,15,12.90
2011,08,19,11,16,12.90
2011,08,19,11,17,12.90
2011,08,19,11,18,13.00
2011,08,19,11,19,13.20
2011,08,19,11,20,13.30
2011,08,19,11,21,13.40
2011,08,19,11,22,13.30
2011,08,19,11,23,13.30
2011,08,19,11,24,13.30
2011,08,19,11,25,13.30
2011,08,19,11,26,13.30
2011,08,19,11,27,13.50
2011,08,19,11,28,13.60
2011,08,19,11,29,13.70
2011,08,19,11,30,13.80
2011,08,19,11,31,13.90
2011,08,19,11,32,14.00
2011,08,19,11,33,14.10
2011,08,19,11,34,14.10
2011,08,19,11,35,14.20
2011,08,19,11,36,14.50
2011,08,19,11,37,14.70
2011,08,19,11,38,14.90
2011,08,19,11,39,15.10
2011,08,19,11,40,15.10
2011,08,19,11,41,15.10
2011,08,19,11,42,15.10
2011,08,19,11,43,15.20
2011,08,19,11,44,15.30
2011,08,19,11,45,15.30
2011,08,19,11,46,15.30
2011,08,19,11,47,15.40
2011,08,19,11,48,15.20
2011,08,19,11,49,15.20
2011,08,19,11,50,15.20
2011,08,19,11,51,15.20
2011,08,19,11,52,15.00
2011,08,19,11,53,14.90
2011,08,19,11,54,14.90
2011,08,19,11,55,15.10
2011,08,19,11,56,15.30
2011,08,19,11,57,15.60
2011,08,19,11,58,15.70
2011,08,19,11,59,15.80
2011,08,19,12,00,15.90
2011,08,19,12,01,16.00
2011,08,19,12,02,16.10
2011,08,19,12,03,16.10
2011,08,19,12,04,16.20
2011,08,19,12,05,16.40
2011,08,19,12,06,16.40
2011,08,19,12,07,16.20
2011,08,19,12,08,16.10
2011,08,19,12,09,16.20
2011,08,19,12,10,16.30
2011,08,19,12,11,16.30
2011,08,19,12,12,16.20
2011,08,19,12,13,16.10
2011,08,19,12,14,16.10
2011,08,19,12,15,16.10
2011,08,19,12,16,16.10
2011,08,19,12,17,16.20
2011,08,19,12,18,16.20
2011,08,19,12,19,16.20
2011,08,19,12,20,16.20
2011,08,19,12,21,16.10
2011,08,19,12,22,16.10
2011,08,19,12,23,16.10
2011,08,19,12,24,16.20
2011,08,19,12,25,16.20
2011,08,19,12,26,16.20
2011,08,19,12,27,16.10
2011,08,19,12,28,16.00
2011,08,19,12,29,15.90
2011,08,19,12,30,15.70
2011,08,19,12,31,15.70
2011,08,19,12,32,15.60
2011,08,19,12,33,15.60
2011,08,19,12,34,15.70
2011,08,19,12,35,15.60
2011,08,19,12,36,15.60
2011,08,19,12,37,15.60
2011,08,19,12,38,15.60
2011,08,19,12,39,15.60
2011,08,19,12,40,15.60
2011,08,19,12,41,15.60
2011,08,19,12,42,15.70
2011,08,19,12,43,15.80
2011,08,19,12,44,16.10
2011,08,19,12,45,16.30
2011,08,19,12,46,16.40
2011,08,19,12,47,16.50
2011,08,19,12,48,16.60
2011,08,19,12,49,16.60
2011,08,19,12,50,16.80
2011,08,19,12,51,16.80
2011,08,19,12,52,16.80
2011,08,19,12,53,16.90
2011,08,19,12,54,17.20
2011,08,19,12,55,17.30
2011,08,19,12,56,17.40
2011,08,19,12,57,17.50
2011,08,19,12,58,17.70
2011,08,19,12,59,17.80
2011,08,19,13,00,17.90
2011,08,19,13,01,17.70
2011,08,19,13,02,17.50
2011,08,19,13,03,17.40
2011,08,19,13,04,17.00
2011,08,19,13,05,16.60
2011,08,19,13,06,16.30
2011,08,19,13,07,15.80
2011,08,19,13,08,15.60
2011,08,19,13,09,15.60
2011,08,19,13,10,15.60
2011,08,19,13,11,15.50
2011,08,19,13,12,15.50
2011,08,19,13,13,15.60
2011,08,19,13,14,15.70
2011,08,19,13,15,15.50
2011,08,19,13,16,15.40
2011,08,19,13,17,15.20
2011,08,19,13,18,15.10
2011,08,19,13,19,15.10
2011,08,19,13,20,15.20
2011,08,19,13,21,15.20
2011,08,19,13,22,15.40
2011,08,19,13,23,15.60
2011,08,19,13,24,15.80
2011,08,19,13,25,16.10
2011,08,19,13,26,16.40
2011,08,19,13,27,16.50
2011,08,19,13,28,16.70
2011,08,19,13,29,16.90
2011,08,19,13,30,17.00
2011,08,19,13,31,17.30
2011,08,19,13,32,17.40
2011,08,19,13,33,17.50
2011,08,19,13,34,17.70
2011,08,19,13,35,17.80
2011,08,19,13,36,17.60
2011,08,19,13,37,17.40
2011,08,19,13,38,17.20
2011,08,19,13,39,17.00
2011,08,19,13,40,16.90
2011,08,19,13,41,16.80
2011,08,19,13,42,16.80
2011,08,19,13,43,16.90
2011,08,19,13,44,17.10
2011,08,19,13,45,17.20
2011,08,19,13,46,17.30
2011,08,19,13,47,17.50
2011,08,19,13,48,17.70
2011,08,19,13,49,17.90
2011,08,19,13,50,18.20
2011,08,19,13,51,18.40
2011,08,19,13,52,18.50
2011,08,19,13,53,18.70
2011,08,19,13,54,18.80
2011,08,19,13,55,18.90
2011,08,19,13,56,19.00
2011,08,19,13,57,19.10
2011,08,19,13,58,19.00
2011,08,19,13,59,18.90
2011,08,19,14,00,19.10
2011,08,19,14,01,18.90
2011,08,19,14,02,18.60
2011,08,19,14,03,18.40
2011,08,19,14,04,18.20
2011,08,19,14,05,18.10
2011,08,19,14,06,18.10
2011,08,19,14,07,18.00
2011,08,19,14,08,17.90
2011,08,19,14,09,17.80
2011,08,19,14,10,17.50
2011,08,19,14,11,17.30
2011,08,19,14,12,17.00
2011,08,19,14,13,16.90
2011,08,19,14,14,16.90
2011,08,19,14,15,16.90
2011,08,19,14,16,17.00
2011,08,19,14,17,17.20
2011,08,19,14,18,17.30
2011,08,19,14,19,17.50
2011,08,19,14,20,17.50
2011,08,19,14,21,17.40
2011,08,19,14,22,17.30
2011,08,19,14,23,17.30
2011,08,19,14,24,17.10
2011,08,19,14,25,17.00
2011,08,19,14,26,17.00
2011,08,19,14,27,16.80
2011,08,19,14,28,16.70
2011,08,19,14,29,16.70
2011,08,19,14,30,16.70
2011,08,19,14,31,16.70
2011,08,19,14,32,16.70
2011,08,19,14,33,16.80
2011,08,19,14,34,16.90
2011,08,19,14,35,17.00
2011,08,19,14,36,17.10
2011,08,19,14,37,17.10
2011,08,19,14,38,17.10
2011,08,19,14,39,17.10
2011,08,19,14,40,17.00
2011,08,19,14,41,16.80
2011,08,19,14,42,16.70
2011,08,19,14,43,16.50
2011,08,19,14,44,16.40
2011,08,19,14,45,16.20
2011,08,19,14,46,16.00
2011,08,19,14,47,15.90
2011,08,19,14,48,15.90
2011,08,19,14,49,15.80
2011,08,19,14,50,15.70
2011,08,19,14,51,15.70
2011,08,19,14,52,15.60
2011,08,19,14,53,15.50
2011,08,19,14,54,15.50
2011,08,19,14,55,15.60
2011,08,19,14,56,15.90
2011,08,19,14,57,16.20
2011,08,19,14,58,16.50
2011,08,19,14,59,16.70
2011,08,19,15,00,16.80
2011,08,19,15,01,16.80
2011,08,19,15,02,16.90
2011,08,19,15,03,16.90
2011,08,19,15,04,16.80
2011,08,19,15,05,16.80
2011,08,19,15,06,16.80
2011,08,19,15,07,16.90
2011,08,19,15,08,16.90
2011,08,19,15,09,17.00
2011,08,19,15,10,17.20
2011,08,19,15,11,17.20
2011,08,19,15,12,17.20
2011,08,19,15,13,17.10
2011,08,19,15,14,17.10
2011,08,19,15,15,17.00
2011,08,19,15,16,16.90
2011,08,19,15,17,16.70
2011,08,19,15,18,16.60
2011,08,19,15,19,16.40
2011,08,19,15,20,16.40
2011,08,19,15,21,16.50
2011,08,19,15,22,16.60
2011,08,19,15,23,16.60
2011,08,19,15,24,16.60
2011,08,19,15,25,16.70
2011,08,19,15,26,16.70
2011,08,19,15,27,17.00
2011,08,19,15,28,17.20
2011,08,19,15,29,17.30
2011,08,19,15,30,17.30
2011,08,19,15,31,17.40
2011,08,19,15,32,17.60
2011,08,19,15,33,17.80
2011,08,19,15,34,17.80
2011,08,19,15,35,17.70
2011,08,19,15,36,17.60
2011,08,19,15,37,17.40
2011,08,19,15,38,17.20
2011,08,19,15,39,17.10
2011,08,19,15,40,17.10
2011,08,19,15,41,17.20
2011,08,19,15,42,17.30
2011,08,19,15,43,17.30
2011,08,19,15,44,17.30
2011,08,19,15,45,17.30
2011,08,19,15,46,17.30
2011,08,19,15,47,17.30
2011,08,19,15,48,17.20
2011,08,19,15,49,17.30
2011,08,19,15,50,17.30
2011,08,19,15,51,17.10
2011,08,19,15,52,17.20
2011,08,19,15,53,17.30
2011,08,19,15,54,17.40
2011,08,19,15,55,17.40
2011,08,19,15,56,17.40
2011,08,19,15,57,17.40
2011,08,19,15,58,17.40
2011,08,19,15,59,17.30
2011,08,19,16,00,17.20
2011,08,19,16,01,17.00
2011,08,19,16,02,17.00
2011,08,19,16,03,17.20
2011,08,19,16,04,17.10
2011,08,19,16,05,17.00
2011,08,19,16,06,17.00
2011,08,19,16,07,17.00
2011,08,19,16,08,17.10
2011,08,19,16,09,17.10
2011,08,19,16,10,17.10
2011,08,19,16,11,17.00
2011,08,19,16,12,17.00
2011,08,19,16,13,17.00
2011,08,19,16,14,16.90
2011,08,19,16,15,16.90
2011,08,19,16,16,16.70
2011,08,19,16,17,16.60
2011,08,19,16,18,16.60
2011,08,19,16,19,16.60
2011,08,19,16,20,16.50
2011,08,19,16,21,16.40
2011,08,19,16,22,16.40
2011,08,19,16,23,16.40
2011,08,19,16,24,16.40
2011,08,19,16,25,16.40
2011,08,19,16,26,16.30
2011,08,19,16,27,16.20
2011,08,19,16,28,15.90
2011,08,19,16,29,15.60
2011,08,19,16,30,15.50
2011,08,19,16,31,15.50
2011,08,19,16,32,15.60
2011,08,19,16,33,15.70
2011,08,19,16,34,15.80
2011,08,19,16,35,15.80
2011,08,19,16,36,15.90
2011,08,19,16,37,15.80
2011,08,19,16,38,15.80
2011,08,19,16,39,15.80
2011,08,19,16,40,15.80
2011,08,19,16,41,15.80
2011,08,19,16,42,15.80
2011,08,19,16,43,15.80
2011,08,19,16,44,15.80
2011,08,19,16,45,15.80
2011,08,19,16,46,15.80
2011,08,19,16,47,15.90
2011,08,19,16,48,15.90
2011,08,19,16,49,15.90
2011,08,19,16,50,15.90
2011,08,19,16,51,15.80
2011,08,19,16,52,15.70
2011,08,19,16,53,15.50
2011,08,19,16,54,15.40
2011,08,19,16,55,15.20
2011,08,19,16,56,15.00
2011,08,19,16,57,14.80
2011,08,19,16,58,14.70
2011,08,19,16,59,14.50
2011,08,19,17,00,14.50
2011,08,19,17,01,14.50
2011,08,19,17,02,14.50
2011,08,19,17,03,14.60
2011,08,19,17,04,14.70
2011,08,19,17,05,14.70
2011,08,19,17,06,14.60
2011,08,19,17,07,14.50
2011,08,19,17,08,14.50
2011,08,19,17,09,14.50
2011,08,19,17,10,14.50
2011,08,19,17,11,14.70
2011,08,19,17,12,14.80
2011,08,19,17,13,14.80
2011,08,19,17,14,14.80
2011,08,19,17,15,14.80
2011,08,19,17,16,14.80
2011,08,19,17,17,14.80
2011,08,19,17,18,14.80
2011,08,19,17,19,14.90
2011,08,19,17,20,15.00
2011,08,19,17,21,15.10